Regional Weather Roundup
Issued by NWS Newport/Morehead, NC

Home | Current Version | Previous Version | Text Only | Print | Product List | Glossary On
Versions: 1 2 3 4 5 6 7 8 9 10 11 12 13 14 15 16 17 18 19 20 21 22 23 24 25 26 27 28 29 30 31 32 33 34 35 36 37 38 39 40 41 42 43 44 45 46 47 48 49 50
000
ASUS42 KMHX 281225
RWRMHX
WEATHER ROUNDUP FOR EASTERN NORTH CAROLINA
NATIONAL WEATHER SERVICE NEWPORT/MOREHEAD CITY NC
800 AM EDT SUN AUG 28 2016

NOTE: "FAIR" INDICATES FEW OR NO CLOUDS BELOW 12,000 FEET
WITH NO SIGNIFICANT WEATHER AND/OR OBSTRUCTIONS TO VISIBILITY

NCZ015>017-031-032-045>047-102-103-281300-
NORTH COAST

CITY           SKY/WX    TMP DP  RH WIND       PRES   REMARKS
EDENTON        CLOUDY   N/A N/A N/A NE7       30.16R FOG
ELIZABETH CITY PTSUNNY   80  76  87 N9        30.15S
KITTY HAWK     SUNNY     81  80  99 CALM      30.12S
MANTEO         MOSUNNY   80  78  93 NE8       30.13S

$$

NCZ045>047-081-094-103-104-281300-
CENTRAL COAST

CITY           SKY/WX    TMP DP  RH WIND       PRES   REMARKS
FRISCO         SUNNY     83  76  79 E3        30.11R

$$

NCZ095-097-098-100-101-281300-
SOUTHERN COAST

CITY           SKY/WX    TMP DP  RH WIND       PRES   REMARKS
BEAUFORT       MOSUNNY   80  77  90 N6        30.11R
CEDAR ISLAND   NOT AVBL
JACKSONVILLE   CLOUDY    77  74  90 N12       30.12R
PINEY ISLAND   NOT AVBL
WILMINGTON     CLOUDY    76  74  93 N9        30.12R


$$

NCZ011>013-027>030-043-044-078>080-089-090>093-098-281300-
COASTAL PLAIN

CITY           SKY/WX    TMP DP  RH WIND       PRES   REMARKS
AHOSKIE        CLOUDY    71  70  98 N6        30.18R FOG
CLINTON        MOSUNNY   75  75  99 NE5       30.15R
ELIZABETHTOWN  CLOUDY    75  75 100 CALM      30.13S FOG
GOLDSBORO      CLOUDY    74  74 100 N6        30.15R FOG
GREENVILLE     CLOUDY    77  75  94 NE6       30.17R
HAVELOCK       PTSUNNY   79  75  87 N10       30.13R
KENANSVILLE    CLOUDY    73  73 100 N7        30.16R FOG
KINSTON        FOG       75  73  94 N6        30.16R VSB 1
NEW BERN       CLOUDY    76  74  93 N7        30.14S FOG
RICHLANDS      CLOUDY    75  74  96 N7        30.14R
ROCKY MOUNT    CLOUDY    73  73 100 N8        30.19R FOG
WASHINGTON     CLOUDY    74  74  99 N5        30.15R FOG
WHITEVILLE     CLOUDY    75  74  95 NE6       30.12R FOG

$$

AMZ130-135-150-152-154-156-158-170-250-252-270-ANZ085-086-088-633-658-670-281300-
MARINE OBSERVATIONS

STATION/POSITION TIME  TEMP    WIND        PRES    WAVE   SWELL
                       AIR SEA DIR/SP/G            HT/PER HT/PER
                 (UTC) (F)     (DEG/KT/KT) (MB)    (FT/S) (FT/S)
CHESAPEAKE LIGHT NOT AVBL
64 E VA BEACH    1150   81 81   60/ 14/ 16 1020.1    4/ 5   2/ 8
DUCK             1200      78   40/ 11/ 12 1020.0
2 E DUCK         1211      79                N/A     4/ 6
OREGON INLET     1200      78   20/  7/ 10 1019.7
13E OREGON INLT  1200      78                N/A     3/ 8   3/ 8
HATTERAS CG      1200      83   50/  4/  5 1019.3
DIAMOND BUOY     1150   83 84  100/  8/ 10 1019.4    3/ 8   3/ 8
CAPE LOOKOUT     1200   80     360/  5/  6 1019.2
BEAUFORT LAB     1200      82   10/  7/  9 1018.9
30 SE NEW RVR IN 1208   83 84   50/ 10/ 12 1019.4
30 SE NEW RVR IN 1125      84                N/A     3/ 8
27 SE WRIGHTSVLE 1208   83 84   40/ 12/ 16 1019.5
5 SE WRIGHTSVLE  1208   80 83   30/ 12/ 17 1020.5
225 S CAPE HAT   1150   82 84   70/ 12/ 14 1017.6    4/ 8   3/ 8
41 SE CHARLESTON 1150   83 84   60/ 12/ 16 1018.1    4/ 9   3/ 9

$$




USA.gov is the U.S. government's official web portal to all federal, state and local government web resources and services.